Regional Weather Roundup
Issued by NWS Cleveland, OH

Home | Current Version | Previous Version | Graphics & Text | Print | Product List | Glossary On
Versions: 1 2 3 4 5 6 7 8 9 10 11 12 13 14 15 16 17 18 19 20 21 22 23 24 25 26 27 28 29 30 31 32 33 34 35 36 37 38 39 40 41 42 43 44 45 46 47 48 49 50
000
ASUS41 KCLE 221610
RWRCLE
OHIO REGIONAL WEATHER ROUNDUP
NATIONAL WEATHER SERVICE CLEVELAND, OH
1200 PM EDT SUN APR 22 2018

NOTE: "FAIR" INDICATES FEW OR NO CLOUDS BELOW 12,000 FEET WITH NO
SIGNIFICANT WEATHER AND/OR OBSTRUCTIONS TO VISIBILITY.

OHZ001>008-015>018-024>027-034-035-043-044-221700-
   NORTHWEST OHIO

CITY           SKY/WX    TMP DP  RH WIND       PRES   REMARKS
DEFIANCE       FAIR      56  28  34 E13       30.38F
FINDLAY        FAIR      57  29  34 NE13      30.35F
TOLEDO EXPRESS FAIR      55  28  35 NE18      30.40F
TOLEDO EXEC    FAIR      53  28  38 E13G23    30.41F
LIMA           FAIR      54  33  45 NE12      30.34F
$$

OHZ009>014-019>023-028>033-038-089-221700-
   NORTHEAST OHIO

CITY           SKY/WX    TMP DP  RH WIND       PRES   REMARKS
CLE-HOPKINS    PTSUNNY   54  31  41 N12       30.41S
CLE-LAKEFRONT  FAIR      46  35  65 NE15G23   30.38S
CUY CO. ARPT   MOSUNNY   61  23  23 E14       30.38F
LORAIN-ELYRIA  FAIR      54  26  34 NE15      30.38S
ASHTABULA      FAIR      57  19  22 NE8       30.39F
AKRON-CANTON   PTSUNNY   60  30  32 NE9       30.35F
WOOSTER        FAIR      58  25  28 E13       30.36S
MANSFIELD      FAIR      57  27  31 E10       30.35F
YOUNGSTOWN     PTSUNNY   60  25  26 NE13      30.35F
$$

OHZ042-051>053-060>062-070>072-077>081-221700-
  SOUTHWEST OHIO

CITY           SKY/WX    TMP DP  RH WIND       PRES   REMARKS
CINC-COVINGTON CLOUDY    58  30  34 E13       30.27R
CINC-LUNKEN    FAIR      60  35  39 NE9       30.29F
HAMILTON       FAIR      57  34  41 NE12      30.30F
DAYTON         CLOUDY    57  31  37 E7        30.32S
WRIGHT-PAT AFB FAIR      56  32  39 NE5       30.31S
DAYTON GENERAL FAIR      56  32  40 NE10      30.29F
WILMINGTON     FAIR      54  36  50 NE9       30.29F
$$

OHZ036-037-039>041-045>050-054>059-063>069-073>076-082>088-221700-
  CENTRAL AND SOUTHEAST OHIO

CITY           SKY/WX    TMP DP  RH WIND       PRES   REMARKS
COLUMBUS       CLOUDY    61  29  29 NE8       30.32F
OSU AIRPORT    FAIR      59  30  33 NE9G18    30.32F
BOLTON FIELD   SUNNY     57  32  38 E7        30.32F
RICKENBACK AFB FAIR      57  31  38 NE9       30.31S
NEWARK         FAIR      59  31  34 E9        30.31F
MARION         FAIR      57  26  30 E8        30.34F
LANCASTER      FAIR      58  35  42 NE8       30.32F
ZANESVILLE     FAIR      61  31  32 VRB5      30.31F
NEW PHILLY     FAIR      61  28  28 E8        30.33F
$$



USA.gov is the U.S. government's official web portal to all federal, state and local government web resources and services.